sat.trackr.live / text

‹ back to catalog

STARLINK-34027

NORAD 63936 · 2025-098L

PAYLOAD ACTIVE UNKNOWN

§ Identity

Operator
Country
US
Launch date
2025-05-13
Launch site
AFWTR
Launch vehicle
Mass (kg)
RCS (m²)

Purposes: comms

External: N2YO · Heavens-Above · Gunter

§ Orbital elements

Epoch: 2026-09-19T23:01:56.298432Z

Period
94.14 min
Inclination
69.9998°
Eccentricity
0.0003047
Mean motion
15.29590218 rev/d
Perigee alt
474.9 km
Apogee alt
479.1 km
Semi-major
6,855.2 km
B*
3.9593e-4
RAAN
142.1817°
Arg perigee
275.3196°
Mean anomaly
84.7631°
Rev number
7,571

§ Raw data

STARLINK-340271 63936U 25098L   26262.95967938  .00011274  00000+0  39593-3 0  99912 63936  69.9998 142.1817 0003047 275.3196  84.7631 15.29590218 75711

JSON: /api/v1/satellites/63936 · /tle

For live sub-satellite position, see the globe view (requires WebGL).

§ Visibility from observer

Set your observer location to see the next 7 days of passes ≥ 10°. The values pass through the URL so the page stays shareable.

No JS? Fill the form by hand. The geolocation button needs JavaScript.